AirNav   Pilot Hours Calculator
 
 1045 users online  

U13 Junction Airport
Junction, Utah, USA

GOING TO JUNCTION?


FAA INFORMATION EFFECTIVE 16 JUNE 2022

Location

FAA Identifier: U13
Lat/Long: 38-14-59.9220N 112-13-31.7300W
38-14.998700N 112-13.528833W
38.2499783,-112.2254806
(estimated)
Elevation: 6069 ft. / 1850 m (estimated)
Variation: 14E (1985)
From city: 1 mile N of JUNCTION, UT
Time zone: UTC -6 (UTC -7 during Standard Time)
Zip code: 84740

Airport Operations

Airport use: Open to the public
Activation date: 12/1947
Control tower: no
ARTCC: SALT LAKE CITY CENTER
FSS: CEDAR CITY FLIGHT SERVICE STATION
NOTAMs facility: CDC (NOTAM-D service available)
Attendance: UNATNDD
Wind indicator: yes
Segmented circle: yes

Airport Communications

CTAF: 122.9

Airport Services

Parking: tiedowns
Airframe service: NONE
Powerplant service: NONE
Bottled oxygen: NONE
Bulk oxygen: NONE

Runway Information

Runway 17/35

Dimensions: 4505 x 60 ft. / 1373 x 18 m
Surface: asphalt, in good condition
RUNWAY 17  RUNWAY 35
Traffic pattern: leftleft
Markings: basic, in good conditionbasic, in good condition
Obstructions: none
+6 FT FENCE, 190 FT FROM RY END.
62 ft. tree, 588 ft. from runway, 120 ft. right of centerline, 7:1 slope to clear
+4' FENCE, 190' FROM RY END.

Airport Ownership and Management from official FAA records

Ownership: Publicly-owned
Owner: TOWN OF JUNCTION
550 N. MAIN, PO BOX 26
JUNCTION, UT 84740
Phone 435-577-2840
Manager: RICKY DALTON
550 N. MAIN, PO BOX 26, PO BOX 26
JUNCTION, UT 84740
Phone 435-231-1223

Airport Operational Statistics

Aircraft operations: avg 75/month *
90% transient general aviation
10% local general aviation
* for 12-month period ending 02 January 2012

Additional Remarks

FOR CD CTC SALT LAKE ARTCC AT 801-320-2568.

Instrument Procedures

There are no published instrument procedures at U13.

Some nearby airports with instrument procedures:

U52 - Beaver Municipal Airport (21 nm W)
U55 - Panguitch Municipal Airport (26 nm S)
KRIF - Richfield Municipal Airport (30 nm N)
KBCE - Bryce Canyon Airport (33 nm S)
KMLF - Milford Municipal Airport/Ben and Judy Briscoe Field (39 nm W)
 
Loc | Ops | Rwys | IFR | FBO | Links
Com | Nav | Svcs | Stats | Notes
Area around U13 (Junction Airport)
 
Road maps at: MapQuest Bing Google
 
Aerial photo
WARNING: Photo may not be current or correct
Aerial photo of U13 (Junction Airport)
Photo taken 17-Aug-2020
looking south.

Do you have a better or more recent aerial photo of Junction Airport that you would like to share? If so, please send us your photo.

 
Sectional chart

 
Airport distance calculator
Flying to Junction Airport? Find the distance to fly.

From to U13

Sunrise and sunset
Times for 26-Jun-2022
 Local
(UTC-6)
 Zulu
(UTC)
Morning civil twilight05:3711:37
Sunrise06:0812:08
Sunset20:5502:55
Evening civil twilight21:2703:27

Current date and time
Zulu (UTC)  26-Jun-2022 14:51:57
Local (UTC-6)  26-Jun-2022 08:51:57
 
METAR
KU55 
26nm S 
261435Z AUTO 00000KT 10SM CLR 13/02 A3046 RMK A01
KBCE 
33nm S 
261353Z AUTO 27004KT 6SM HZ CLR 12/04 A3047 RMK AO2 SLP209 T01170044
KMLF 
39nm W 
261352Z AUTO 00000KT 10SM CLR 21/02 A3026 RMK AO2 SLP175 T02110022
TAF
KBCE 
33nm S 
261343Z 2614/2712 VRB06KT 5SM FU SCT100 FM261500 15008KT P6SM VCSH BKN100 FM270500 VRB05KT P6SM SCT100
NOTAMs
Click for the latest NOTAMs
NOTAMs are issued by the DoD/FAA and will open in a separate window not controlled by AirNav.

 

 
 

Would you like to see your business listed on this page?

 If your business provides an interesting product or service to pilots, flight crews, aircraft, or users of the Junction Airport, you should consider listing it here.  To start the listing process, click on the button below
 
Add a business
 

Other Pages about Junction Airport

Update a link
 
Copyright © AirNav, LLC. All rights reserved. Privacy Policy  Contact